Location: Prague
(50.0830°N, 14.4670°E)
Time: 23:07:16
(UTC+01:00)

CUTE-I - Visible Passes

Search period start: 05 December 2021 00:00
Search period end: 15 December 2021 00:00
Orbit: 811 x 824 km, 98.7° (Epoch: 04 December)

Date Brightness Start Highest point End Pass type
(mag) Time Alt. Az. Time Alt. Az. Time Alt. Az.
05 Dec ? 04:52:44 10° ENE 04:54:58 12° E 04:57:11 10° ESE visible
05 Dec ? 06:30:30 10° NNE 06:35:55 76° ESE 06:41:17 10° S visible
05 Dec ? 17:57:18 10° S 18:02:23 45° W 18:07:33 10° NNW visible
06 Dec ? 06:09:01 10° NNE 06:14:17 52° E 06:19:31 10° S visible
06 Dec ? 17:35:26 10° S 17:40:44 66° WSW 17:46:07 10° NNW visible
06 Dec ? 19:20:48 10° W 19:21:49 10° W 19:22:51 10° WNW visible
07 Dec ? 05:47:39 10° NNE 05:52:35 35° E 05:57:28 10° SSE visible
07 Dec ? 17:13:48 10° SSE 17:19:09 85° ENE 17:24:34 10° NNW visible
07 Dec ? 18:56:36 10° SW 18:59:54 16° W 19:03:12 10° NW visible
08 Dec ? 05:26:30 10° NE 05:30:49 24° E 05:35:07 10° SE visible
08 Dec ? 07:05:56 10° N 07:11:14 59° WNW 07:16:30 10° SSW visible
08 Dec ? 16:52:24 10° SSE 16:57:38 59° ENE 17:02:55 10° N visible
08 Dec ? 18:33:46 10° SW 18:38:03 24° W 18:42:22 10° NW visible
09 Dec ? 05:05:39 10° NE 05:08:59 16° E 05:12:18 10° SE visible
09 Dec ? 06:44:18 10° NNE 06:49:43 85° WNW 06:55:06 10° SSW visible
09 Dec ? 16:31:13 10° SE 16:36:11 41° ENE 16:41:12 10° N visible
09 Dec ? 18:11:25 10° SSW 18:16:17 35° W 18:21:12 10° NNW visible
10 Dec ? 04:46:01 10° ENE 04:47:04 11° E 04:48:07 10° E visible
10 Dec ? 06:22:45 10° NNE 06:28:08 66° ESE 06:33:28 10° S visible
10 Dec ? 17:49:23 10° S 17:54:36 52° W 17:59:51 10° NNW visible
11 Dec ? 06:01:19 10° NNE 06:06:29 45° E 06:11:36 10° S visible
11 Dec ? 17:27:37 10° S 17:32:57 76° WSW 17:38:22 10° NNW visible
11 Dec ? 19:11:42 10° WSW 19:13:55 12° W 19:16:08 10° WNW visible
12 Dec ? 05:40:01 10° NNE 05:44:46 31° E 05:49:28 10° SSE visible
12 Dec ? 17:06:03 10° SSE 17:11:24 75° ENE 17:16:47 10° NNW visible
12 Dec ? 18:48:18 10° SW 18:52:01 19° W 18:55:46 10° NW visible
13 Dec ? 05:18:56 10° NE 05:22:58 21° E 05:26:58 10° SE visible
13 Dec ? 06:58:08 10° N 07:03:30 68° WNW 07:08:49 10° SSW visible
13 Dec ? 16:44:44 10° SE 16:49:54 52° ENE 16:55:07 10° N visible
13 Dec ? 18:25:40 10° SSW 18:30:12 28° W 18:34:47 10° NW visible
14 Dec ? 04:58:19 10° NE 05:01:06 14° E 05:03:51 10° ESE visible
14 Dec ? 06:36:32 10° NNE 06:41:57 84° ESE 06:47:20 10° SSW visible
14 Dec ? 18:03:26 10° SSW 18:08:27 40° W 18:13:32 10° NNW visible
